NOAA 16 DEB, 41280

Orbit data source: Space-Track

NOAA 16 DEB, 41280 is space debris in LEO originally from a launch on Thu, 21 Sep 2000 UTC launched from the Air Force Western Test Range (AFWTR). Debris objects in space refer to the collection of defunct objects orbiting the Earth. Examples of debris include non-operational satellites, rocket bodies, and fragments generated from explosions, collisions, or faulty payload assembly.

Loading next visibility...
NOAA 16 DEB details
Identifier
41280, 2000-055GG
Orbit
LEO
Last TLE update1 day ago
Origin
Flag of USNOAA (US)
ManufacturerUnknown
MissionSpacecraft
Bus & MotorUnknown
MassUnknown
Launch date (UTC)
2000-09-21 (24 years ago)
Launch vehicleUnknown
Launch site
Air Force Western Test Range (AFWTR)
Object type
Payload
Rocket body
Debris
Shape & HBRUnknown
Radar Cross SectionSmall (<0.1 m²)

Expand to show TLE details & history

TLE from 1 day ago
0 NOAA 16 DEB
1 41280U 00055GG  24336.28421968  .00010145  00000-0  51337-2 0  9995
2 41280  98.6637 340.6426 0031485  17.9827 342.2453 14.16007277459417
Epoch: 2024-12-01T06:49Z
Definitive object data (Epoch: 2024-12-01T06:49:16.58Z)
Latitude-0.0001°
Longitude167.69889°
Altitude820.16 km
Speed7.454 km/s
True Right ascension22h 42m 34s
True Declination0° 00' 00"
Sunlit
Object was in daylight at TLE epoch
Visualization TLE readout
Latitude-3.05559°
Longitude-11.63036°
Altitude864.416 km
Speed7.409 km/s
Apparent Right ascension13h 26m 27s
Apparent Declination-47° 38' 36"
Sunlit
Object is in daylight
Visualization observer readout
Local Sidereal Time08:35:32
Azimuth137.215° SSE
Elevation-18.708°
Doppler factor1
Orbital elements
Apogee altitude858.763 km
Perigee altitude813.335 km
Semi-major axis7,214.186 km
Eccentricity0.0031485
Inclination98.6637°
RAAN340.6426°
Arg. of periapsis17.9827°
True anomaly342.13487°
Mean anomaly342.2453°
Eccentric anomaly342.19012°
Mean motion3.54211 °/min
BSTAR0.0051337
Orbital period101.63 mins
Loading maneuver chart data...
Loading historical data...
Loading historical data...
Loading historical data...
Loading historical data...
Loading historical data...
Loading historical data...
Loading historical data...

NOAA 16 DEB Visibility forecast

Observer location: undefined°, undefined

Span
Click to sort rows by Start time (UTC) header in descending order
Start Az.
Max El. time (UTC)
Max El. Az.
Max El.
End time (UTC)
End Az.
8 mins2024-12-02 12:14:54.815Z45.394° ENE2024-12-02 12:18:54.815Z93.145° ESE19.837°2024-12-02 12:22:54.815Z140.94° SSE
8 mins2024-12-02 13:55:54.815Z356.064° N2024-12-02 13:59:54.815Z278.078° WNW36.946°2024-12-02 14:03:54.815Z219.195° SW
8 mins2024-12-02 23:39:54.815Z123.039° SE2024-12-02 23:43:54.815Z56.425° ENE28.511°2024-12-02 23:47:54.815Z6.494° NNE
7 mins2024-12-03 01:20:54.815Z216.61° SW2024-12-03 01:23:54.815Z265.126° W26.231°2024-12-03 01:27:54.815Z320.658° NNW
|